CW9386 Weather Reports


time (UTC)temp
C
wind
direction
speed
KPH
gust
KPH
rain 1hr
cm
rain 24hr
cm
rain mn
cm
humidity
%
barometer
mb
20260507134734 12 342 12.9 17.7 0.00 0.00 0.00 45 1018.9
20260507132723 11 38 11.3 16.1 0.00 0.00 0.00 46 1018.7
20260507131733 11 39 12.9 17.7 0.00 0.00 0.00 46 1018.7
20260507130726 10 10 8.0 16.1 0.00 0.00 0.00 46 1018.7
20260507125720 10 22 8.0 16.1 0.00 0.00 0.00 47 1018.5
20260507124730 10 349 9.7 14.5 0.00 0.00 0.00 46 1018.5
20260507123725 9 10 8.0 16.1 0.00 0.00 0.00 45 1018.5
20260507122731 10 21 8.0 12.9 0.00 0.00 0.00 43 1018.4
20260507121724 10 28 6.4 14.5 0.00 0.00 0.00 41 1018.4
20260507120719 10 44 8.0 14.5 0.00 0.00 0.00 41 1018.3
20260507115731 9 55 8.0 9.7 0.00 0.00 0.00 40 1018.2
20260507114730 9 12 4.8 11.3 0.00 0.00 0.00 38 1018.2
20260507113730 9 67 8.0 12.9 0.00 0.00 0.00 36 1018.0
20260507112723 9 62 4.8 8.0 0.00 0.00 0.00 37 1017.9
20260507111719 9 54 1.6 12.9 0.00 0.00 0.00 37 1017.9
20260507110714 9 11 6.4 12.9 0.00 0.00 0.00 35 1017.8
20260507105730 10 13 6.4 12.9 0.00 0.00 0.00 32 1017.7
20260507102718 10 360 4.8 8.0 0.00 0.00 0.00 30 1017.6
20260507101727 10 18 4.8 9.7 0.00 0.00 0.00 29 1017.5
20260507100722 11 5 4.8 9.7 0.00 0.00 0.00 28 1017.5
20260507094729 12 349 3.2 8.0 0.00 0.00 0.00 25 1017.2
20260507092719 13 339 3.2 9.7 0.00 0.00 0.00 22 1017.2
20260507091715 14 355 6.4 12.9 0.00 0.00 0.00 21 1017.2
20260507090712 14 17 4.8 8.0 0.00 0.00 0.00 21 1017.2
20260507085723 14 49 1.6 3.2 0.00 0.00 0.00 22 1017.1
20260507083722 15 44 4.8 8.0 0.00 0.00 0.00 20 1017.1
20260507082711 15 42 4.8 8.0 0.00 0.00 0.00 21 1017.2
20260507081722 15 80 3.2 6.4 0.00 0.00 0.00 22 1017.2
20260507080718 15 69 1.6 6.4 0.00 0.00 0.00 20 1017.1
20260507074724 13 65 4.8 8.0 0.00 0.00 0.00 25 1017.1
20260507073722 13 82 3.2 6.4 0.00 0.00 0.00 24 1017.2
20260507072714 13 105 1.6 4.8 0.00 0.00 0.00 24 1017.3
20260507071722 14 73 1.6 6.4 0.00 0.00 0.00 24 1017.4
20260507070720 13 49 3.2 8.0 0.00 0.00 0.00 23 1017.5
20260507065721 13 82 3.2 4.8 0.00 0.00 0.00 25 1017.5
20260507064715 13 78 1.6 3.2 0.00 0.00 0.00 26 1017.5
20260507063715 13 86 1.6 6.4 0.00 0.00 0.00 27 1017.5
20260507062709 13 92 4.8 8.0 0.00 0.00 0.00 26 1017.5
20260507061722 13 89 3.2 9.7 0.00 0.00 0.00 26 1017.5
20260507060717 13 136 1.6 6.4 0.00 0.00 0.00 25 1017.5
20260507055709 13 138 0.0 9.7 0.00 0.00 0.00 25 1017.6
20260507053722 14 86 3.2 4.8 0.00 0.00 0.00 23 1017.5
20260507052715 15 84 4.8 4.8 0.00 0.00 0.00 23 1017.3
20260507050707 15 134 1.6 9.7 0.00 0.00 0.00 21 1017.4
20260507045724 15 84 4.8 9.7 0.00 0.00 0.00 21 1017.3
20260507043716 17 126 3.2 4.8 0.00 0.00 0.00 17 1016.9
20260507042711 17 186 3.2 8.0 0.00 0.00 0.00 16 1016.8
20260507041709 17 167 3.2 6.4 0.00 0.00 0.00 16 1016.7
20260507040706 17 169 3.2 6.4 0.00 0.00 0.00 16 1016.6
20260507034717 17 150 4.8 9.7 0.00 0.00 0.00 16 1016.2
20260507033710 17 138 4.8 8.0 0.00 0.00 0.00 17 1016.2
20260507032706 17 53 6.4 9.7 0.00 0.00 0.00 16 1016.1
20260507031723 19 16 3.2 4.8 0.00 0.00 0.00 14 1015.9
20260507025718 20 27 6.4 12.9 0.00 0.00 0.00 12 1015.6
20260507024711 20 28 6.4 9.7 0.00 0.00 0.00 12 1015.4
20260507023712 20 30 6.4 14.5 0.00 0.00 0.00 12 1015.3
20260507021721 21 30 12.9 24.1 0.00 0.00 0.00 11 1015.0
20260507020719 21 27 14.5 24.1 0.00 0.00 0.00 11 1014.9
20260507013706 22 271 12.9 25.7 0.00 0.00 0.00 10 1014.5
20260507012721 22 252 16.1 27.4 0.00 0.00 0.00 10 1014.5
20260507011715 22 232 17.7 24.1 0.00 0.00 0.00 10 1014.4
20260507005703 23 228 22.5 29.0 0.00 0.00 0.00 10 1014.2
20260507004716 23 280 14.5 30.6 0.00 0.00 0.00 11 1014.1
20260507003705 23 241 20.9 33.8 0.00 0.00 0.00 10 1014.0
20260507002720 23 237 17.7 29.0 0.00 0.00 0.00 11 1013.9
20260507000704 23 209 20.9 29.0 0.00 0.00 0.00 11 1013.9
20260506235719 23 232 19.3 35.4 0.00 0.00 0.00 10 1013.8
20260506234708 23 254 12.9 32.2 0.00 0.00 0.00 10 1013.7
20260506233705 24 198 19.3 32.2 0.00 0.00 0.00 10 1013.7
20260506232704 24 273 16.1 27.4 0.00 0.00 0.00 11 1013.7
20260506231700 23 259 20.9 35.4 0.00 0.00 0.00 10 1013.8
20260506230713 23 241 19.3 38.6 0.00 0.00 0.00 10 1013.9
20260506222658 23 254 20.9 32.2 0.00 0.00 0.00 12 1013.9
20260506221712 24 242 16.1 33.8 0.00 0.00 0.00 12 1013.8
20260506220707 24 251 16.1 30.6 0.00 0.00 0.00 13 1013.9
20260506215659 23 221 20.9 27.4 0.00 0.00 0.00 13 1014.0
20260506214708 23 248 14.5 30.6 0.00 0.00 0.00 13 1014.1
20260506213708 23 244 16.1 27.4 0.00 0.00 0.00 14 1014.1
20260506211713 23 174 8.0 25.7 0.00 0.00 0.00 16 1014.2
20260506205658 23 253 17.7 32.2 0.00 0.00 0.00 17 1014.5
20260506201704 22 274 8.0 27.4 0.00 0.00 0.00 18 1014.7
20260506195712 22 237 11.3 25.7 0.00 0.00 0.00 19 1015.0
20260506194709 22 262 16.1 22.5 0.00 0.00 0.00 19 1015.2
20260506193703 22 220 16.1 29.0 0.00 0.00 0.00 20 1015.3
20260506190704 21 285 19.3 25.7 0.00 0.00 0.00 21 1015.7
20260506185657 21 205 14.5 27.4 0.00 0.00 0.00 24 1015.7
20260506184706 21 255 17.7 25.7 0.00 0.00 0.00 22 1015.9
20260506183658 20 132 17.7 27.4 0.00 0.00 0.00 25 1016.0
20260506181710 20 251 4.8 29.0 0.00 0.00 0.00 25 1016.2
20260506180708 20 201 4.8 20.9 0.00 0.00 0.00 25 1016.4
20260506175706 20 210 11.3 29.0 0.00 0.00 0.00 24 1016.5
20260506174658 20 204 16.1 29.0 0.00 0.00 0.00 24 1016.4
20260506173703 20 187 14.5 24.1 0.00 0.00 0.00 25 1016.5
20260506171657 19 161 14.5 24.1 0.00 0.00 0.00 26 1016.5
20260506170706 19 211 12.9 25.7 0.00 0.00 0.00 27 1016.5
20260506165702 19 239 12.9 25.7 0.00 0.00 0.00 27 1016.7
20260506164709 18 234 14.5 27.4 0.00 0.00 0.00 28 1016.5
20260506163706 18 229 20.9 25.7 0.00 0.00 0.00 29 1016.6
20260506162658 18 265 6.4 22.5 0.00 0.00 0.00 28 1016.6
20260506161653 18 248 11.3 27.4 0.00 0.00 0.00 29 1016.5
20260506160710 18 253 16.1 22.5 0.00 0.00 0.00 31 1016.5
20260506154658 17 227 6.4 17.7 0.00 0.00 0.00 34 1016.4
20260506153652 17 236 12.9 19.3 0.00 0.00 0.00 34 1016.5
20260506152701 17 227 9.7 19.3 0.00 0.00 0.00 34 1016.5
20260506151650 17 237 9.7 20.9 0.00 0.00 0.00 35 1016.4
20260506150704 17 261 9.7 16.1 0.00 0.00 0.00 35 1016.4
20260506145659 16 300 6.4 16.1 0.00 0.00 0.00 35 1016.4
20260506144658 16 282 8.0 17.7 0.00 0.00 0.00 35 1016.4
20260506143654 16 240 3.2 14.5 0.00 0.00 0.00 36 1016.4
20260506141657 16 234 3.2 8.0 0.00 0.00 0.00 37 1016.4
20260506140655 16 275 3.2 9.7 0.00 0.00 0.00 37 1016.2